START_TIME,STEP,MOV.,M29,t_acc.,H22,t_acc.,H26,t_acc.,H30,t_acc.
1980-11-15 21:00:20.500 ,2,0,0.,24.0,0.,24.0,0.,24.0,0.,24.0
1980-11-15 21:00:44.500 ,3,1,0.,24.0,0.,24.0,0.,24.0,0.,24.0
1980-11-15 21:01:08.500 ,3,0,0.,24.0,0.,24.0,0.,24.0,0.,24.0
1980-11-15 21:01:32.500 ,4,1,0.,24.0,0.,24.0,0.,24.0,0.,24.0
1980-11-15 21:01:56.500 ,4,0,0.,24.0,0.,24.0,0.,24.0,0.,24.0
1980-11-15 21:02:20.500 ,5,1,0.,24.0,0.,24.0,0.,24.0,0.,24.0
1980-11-15 21:02:44.500 ,5,0,0.,24.0,0.,24.0,0.,24.0,0.,24.0
1980-11-15 21:03:08.490 ,6,1,0.,24.0,0.,24.0,0.,24.0,0.,24.0
1980-11-15 21:03:32.500 ,6,0,0.,24.0,0.,24.0,0.,24.0,0.,24.0
1980-11-15 21:03:56.500 ,7,1,0.,24.0,0.,24.0,0.,24.0,0.,24.0
1980-11-15 21:04:20.490 ,7,0,0.,24.0,0.,24.0,0.,24.0,0.,24.0
1980-11-15 21:04:44.490 ,7,1,1.,24.0,0.,24.0,0.,24.0,0.,24.0
1980-11-15 21:05:08.490 ,7,0,0.,24.0,0.,24.0,0.,24.0,0.,24.0
1980-11-15 21:05:32.490 ,6,1,0.,24.0,0.,24.0,0.,24.0,0.,24.0
1980-11-15 21:05:56.490 ,6,0,0.,24.0,0.,24.0,0.,24.0,0.,24.0
1980-11-15 21:06:20.490 ,5,1,0.,24.0,0.,24.0,0.,24.0,0.,24.0
1980-11-15 21:06:44.490 ,5,0,0.,24.0,0.,24.0,0.,24.0,0.,24.0
1980-11-15 21:07:08.490 ,4,1,0.,24.0,0.,24.0,0.,24.0,0.,24.0
1980-11-15 21:07:32.490 ,4,0,0.,24.0,0.,24.0,0.,24.0,0.,24.0
1980-11-15 21:07:56.490 ,3,1,0.,24.0,0.,24.0,0.,24.0,0.,24.0
1980-11-15 21:08:20.490 ,3,0,0.,24.0,0.,24.0,0.,24.0,0.,24.0
1980-11-15 21:08:44.490 ,2,1,0.,24.0,0.,24.0,0.,24.0,0.,24.0
1980-11-15 21:09:08.490 ,2,0,0.,24.0,0.,24.0,0.,24.0,0.,24.0
1980-11-15 21:09:32.490 ,1,1,0.,24.0,0.,24.0,0.,24.0,0.,24.0
1980-11-15 21:09:56.490 ,1,0,0.,24.0,0.,24.0,0.,24.0,0.,24.0
1980-11-15 21:10:20.490 ,0,1,0.,24.0,0.,24.0,0.,24.0,0.,24.0
1980-11-15 21:10:44.490 ,0,0,0.,24.0,0.,24.0,0.,24.0,0.,24.0
1980-11-15 21:11:08.490 ,0,1,0.,24.0,0.,24.0,0.,24.0,0.,24.0
1980-11-15 21:11:32.490 ,0,0,0.,24.0,0.,24.0,0.,24.0,0.,24.0
1980-11-15 21:11:56.490 ,1,1,0.,24.0,0.,24.0,0.,24.0,0.,24.0
1980-11-15 21:12:20.490 ,1,0,0.,24.0,0.,24.0,0.,24.0,0.,24.0
1980-11-15 21:12:44.490 ,2,1,0.,24.0,0.,24.0,0.,24.0,0.,24.0
1980-11-15 21:13:08.490 ,2,0,0.,24.0,0.,24.0,0.,24.0,0.,24.0
1980-11-15 21:13:32.490 ,3,1,0.,24.0,0.,24.0,0.,24.0,0.,24.0
1980-11-15 21:13:56.490 ,3,0,0.,24.0,0.,24.0,0.,24.0,0.,24.0
1980-11-15 21:14:20.490 ,4,1,0.,24.0,0.,24.0,0.,24.0,0.,24.0
1980-11-15 21:14:44.490 ,4,0,0.,24.0,0.,24.0,0.,24.0,0.,24.0
1980-11-15 21:15:08.490 ,5,1,0.,24.0,0.,24.0,0.,24.0,0.,24.0
1980-11-15 21:15:32.490 ,5,0,0.,24.0,0.,24.0,0.,24.0,0.,24.0
1980-11-15 21:15:56.490 ,6,1,0.,24.0,0.,24.0,0.,24.0,0.,24.0
1980-11-15 21:16:20.490 ,6,0,0.,24.0,0.,24.0,0.,24.0,0.,24.0
1980-11-15 21:16:44.490 ,7,1,0.,24.0,0.,24.0,0.,24.0,0.,24.0
1980-11-15 21:17:08.490 ,7,0,0.,24.0,0.,24.0,0.,24.0,0.,24.0
1980-11-15 21:17:32.490 ,7,1,0.,24.0,0.,24.0,0.,24.0,0.,24.0
1980-11-15 21:17:56.490 ,7,0,0.,24.0,0.,24.0,0.,24.0,0.,24.0
1980-11-15 21:18:20.490 ,6,1,0.,24.0,0.,24.0,0.,24.0,0.,24.0
1980-11-15 21:18:44.490 ,6,0,0.,24.0,0.,24.0,0.,24.0,0.,24.0
1980-11-15 21:19:08.490 ,5,1,0.,24.0,0.,24.0,0.,24.0,0.,24.0
1980-11-15 21:19:32.490 ,5,0,0.,24.0,0.,24.0,0.,24.0,0.,24.0
1980-11-15 21:19:56.490 ,4,1,0.,24.0,0.,24.0,0.,24.0,0.,24.0
1980-11-15 21:20:20.490 ,4,0,0.,24.0,0.,24.0,0.,24.0,0.,24.0
1980-11-15 21:20:44.490 ,3,1,0.,24.0,0.,24.0,0.,24.0,0.,24.0
1980-11-15 21:21:08.490 ,3,0,0.,24.0,0.,24.0,0.,24.0,0.,24.0
1980-11-15 21:21:32.490 ,2,1,0.,24.0,0.,24.0,0.,24.0,0.,24.0
1980-11-15 21:21:56.490 ,2,0,0.,24.0,0.,24.0,0.,24.0,0.,24.0
1980-11-15 21:22:20.490 ,1,1,0.,24.0,0.,24.0,0.,24.0,0.,24.0
1980-11-15 21:22:44.490 ,1,0,0.,24.0,0.,24.0,0.,24.0,0.,24.0
1980-11-15 21:23:08.490 ,0,1,0.,24.0,0.,24.0,0.,24.0,0.,24.0
1980-11-15 21:23:32.490 ,0,0,0.,24.0,0.,24.0,0.,24.0,0.,24.0
1980-11-15 21:23:56.490 ,0,1,0.,24.0,0.,24.0,0.,24.0,0.,24.0
1980-11-15 21:24:20.490 ,0,0,0.,24.0,0.,24.0,0.,24.0,0.,24.0
1980-11-15 21:24:44.490 ,1,1,0.,24.0,0.,24.0,0.,24.0,0.,24.0
1980-11-15 21:25:08.490 ,1,0,0.,24.0,0.,24.0,0.,24.0,0.,24.0
1980-11-15 21:25:32.490 ,2,1,0.,24.0,0.,24.0,0.,24.0,0.,24.0
1980-11-15 21:25:56.490 ,2,0,0.,24.0,0.,24.0,0.,24.0,0.,24.0
1980-11-15 21:26:20.490 ,3,1,0.,24.0,0.,24.0,0.,24.0,0.,24.0
1980-11-15 21:26:44.490 ,3,0,0.,24.0,0.,24.0,0.,24.0,0.,24.0
1980-11-15 21:27:08.490 ,4,1,0.,24.0,0.,24.0,0.,24.0,0.,24.0
1980-11-15 21:27:32.490 ,4,0,0.,24.0,0.,24.0,0.,24.0,0.,24.0
1980-11-15 21:27:56.490 ,5,1,0.,24.0,0.,24.0,0.,24.0,0.,24.0
1980-11-15 21:28:20.490 ,5,0,0.,24.0,0.,24.0,0.,24.0,0.,24.0
1980-11-15 21:28:44.490 ,6,1,0.,24.0,0.,24.0,0.,24.0,0.,24.0
1980-11-15 21:29:08.490 ,6,0,0.,24.0,0.,24.0,0.,24.0,0.,24.0
1980-11-15 21:29:32.490 ,7,1,0.,24.0,0.,24.0,0.,24.0,0.,24.0
1980-11-15 21:29:56.490 ,7,0,0.,24.0,0.,24.0,0.,24.0,0.,24.0
1980-11-15 21:30:20.490 ,7,1,0.,24.0,0.,24.0,0.,24.0,0.,24.0
1980-11-15 21:30:44.490 ,7,0,0.,24.0,0.,24.0,0.,24.0,0.,24.0
1980-11-15 21:31:08.490 ,6,1,0.,24.0,0.,24.0,0.,24.0,0.,24.0
1980-11-15 21:31:32.490 ,6,0,1.,24.0,0.,24.0,0.,24.0,0.,24.0
1980-11-15 21:31:56.490 ,5,1,0.,24.0,0.,24.0,0.,24.0,0.,24.0
1980-11-15 21:32:20.490 ,5,0,0.,24.0,0.,24.0,0.,24.0,0.,24.0
1980-11-15 21:32:44.490 ,4,1,0.,24.0,0.,24.0,0.,24.0,0.,24.0
1980-11-15 21:33:08.490 ,4,0,0.,24.0,0.,24.0,0.,24.0,0.,24.0
1980-11-15 21:33:32.490 ,3,1,0.,24.0,0.,24.0,0.,24.0,0.,24.0
1980-11-15 21:33:56.490 ,3,0,0.,24.0,0.,24.0,0.,24.0,0.,24.0
1980-11-15 21:34:20.490 ,2,1,0.,24.0,0.,24.0,0.,24.0,0.,24.0
1980-11-15 21:34:44.490 ,2,0,0.,24.0,0.,24.0,0.,24.0,0.,24.0
1980-11-15 21:35:08.490 ,1,1,0.,24.0,0.,24.0,0.,24.0,0.,24.0
1980-11-15 21:35:32.490 ,1,0,0.,24.0,0.,24.0,0.,24.0,0.,24.0
1980-11-15 21:35:56.490 ,0,1,0.,24.0,0.,24.0,0.,24.0,0.,24.0
1980-11-15 21:36:20.490 ,0,0,0.,24.0,0.,24.0,0.,24.0,0.,24.0
1980-11-15 21:36:44.490 ,0,1,0.,24.0,0.,24.0,0.,24.0,0.,24.0
1980-11-15 21:37:08.490 ,0,0,0.,24.0,0.,24.0,0.,24.0,0.,24.0
1980-11-15 21:37:32.490 ,1,1,0.,24.0,0.,24.0,0.,24.0,0.,24.0
1980-11-15 21:37:56.490 ,1,0,0.,24.0,0.,24.0,0.,24.0,0.,24.0
1980-11-15 21:38:20.490 ,2,1,0.,24.0,0.,24.0,0.,24.0,0.,24.0
1980-11-15 21:38:44.490 ,2,0,0.,24.0,0.,24.0,0.,24.0,0.,24.0
1980-11-15 21:39:08.490 ,3,1,0.,24.0,0.,24.0,0.,24.0,0.,24.0
1980-11-15 21:39:32.490 ,3,0,0.,24.0,0.,24.0,0.,24.0,0.,24.0
1980-11-15 21:39:56.490 ,4,1,0.,24.0,0.,24.0,0.,24.0,0.,24.0
1980-11-15 21:40:20.490 ,4,0,0.,24.0,0.,24.0,0.,24.0,0.,24.0
1980-11-15 21:40:44.490 ,5,1,0.,24.0,0.,24.0,0.,24.0,0.,24.0
1980-11-15 21:41:08.490 ,5,0,0.,24.0,0.,24.0,0.,24.0,0.,24.0
1980-11-15 21:41:32.490 ,6,1,0.,24.0,0.,24.0,0.,24.0,0.,24.0
1980-11-15 21:41:56.490 ,6,0,0.,24.0,0.,24.0,0.,24.0,0.,24.0
1980-11-15 21:42:20.490 ,7,1,0.,24.0,0.,24.0,0.,24.0,0.,24.0
1980-11-15 21:42:44.490 ,7,0,0.,24.0,0.,24.0,0.,24.0,0.,24.0
1980-11-15 21:43:08.490 ,7,1,0.,24.0,0.,24.0,0.,24.0,0.,24.0
1980-11-15 21:43:32.490 ,7,0,0.,24.0,0.,24.0,0.,24.0,0.,24.0
1980-11-15 21:43:56.490 ,6,1,0.,24.0,0.,24.0,0.,24.0,0.,24.0
1980-11-15 21:44:20.490 ,6,0,0.,24.0,0.,24.0,0.,24.0,0.,24.0
1980-11-15 21:44:44.490 ,5,1,0.,24.0,0.,24.0,0.,24.0,0.,24.0
1980-11-15 21:45:08.490 ,5,0,0.,24.0,0.,24.0,0.,24.0,0.,24.0
1980-11-15 21:45:32.490 ,4,1,0.,24.0,0.,24.0,0.,24.0,0.,24.0
1980-11-15 21:45:56.490 ,4,0,0.,24.0,0.,24.0,0.,24.0,0.,24.0
1980-11-15 21:46:20.490 ,3,1,0.,24.0,0.,24.0,0.,24.0,0.,24.0
1980-11-15 21:46:44.490 ,3,0,0.,24.0,0.,24.0,0.,24.0,0.,24.0
1980-11-15 21:47:08.490 ,2,1,0.,24.0,0.,24.0,0.,24.0,0.,24.0
1980-11-15 21:47:32.490 ,2,0,0.,24.0,0.,24.0,0.,24.0,0.,24.0
1980-11-15 21:47:56.490 ,1,1,0.,24.0,0.,24.0,0.,24.0,0.,24.0
1980-11-15 21:48:20.490 ,1,0,0.,24.0,0.,24.0,0.,24.0,0.,24.0
1980-11-15 21:48:44.490 ,0,1,0.,24.0,0.,24.0,0.,24.0,0.,24.0
1980-11-15 21:49:08.490 ,0,0,0.,24.0,0.,24.0,0.,24.0,0.,24.0
1980-11-15 21:49:32.490 ,0,1,0.,24.0,0.,24.0,0.,24.0,0.,24.0
1980-11-15 21:49:56.490 ,0,0,0.,24.0,0.,24.0,0.,24.0,0.,24.0
1980-11-15 21:50:20.490 ,1,1,0.,24.0,0.,24.0,0.,24.0,0.,24.0
1980-11-15 21:50:44.490 ,1,0,0.,24.0,0.,24.0,0.,24.0,0.,24.0
1980-11-15 21:51:08.490 ,2,1,0.,24.0,0.,24.0,0.,24.0,0.,24.0
1980-11-15 21:51:32.490 ,2,0,0.,24.0,0.,24.0,0.,24.0,0.,24.0
1980-11-15 21:51:56.490 ,3,1,0.,24.0,0.,24.0,0.,24.0,0.,24.0
1980-11-15 21:52:20.490 ,3,0,0.,24.0,0.,24.0,0.,24.0,0.,24.0
1980-11-15 21:52:44.490 ,4,1,0.,24.0,0.,24.0,0.,24.0,0.,24.0
1980-11-15 21:53:08.490 ,4,0,0.,24.0,0.,24.0,0.,24.0,0.,24.0
1980-11-15 21:53:32.490 ,5,1,0.,24.0,0.,24.0,0.,24.0,0.,24.0
1980-11-15 21:53:56.490 ,5,0,0.,24.0,0.,24.0,0.,24.0,0.,24.0
1980-11-15 21:54:20.500 ,6,1,0.,24.0,0.,24.0,0.,24.0,0.,24.0
1980-11-15 21:54:44.500 ,6,0,0.,24.0,0.,24.0,0.,24.0,0.,24.0
1980-11-15 21:55:08.500 ,7,1,0.,24.0,0.,24.0,0.,24.0,0.,24.0
1980-11-15 21:55:32.500 ,7,0,0.,24.0,0.,24.0,0.,24.0,0.,24.0
1980-11-15 21:56:44.500 ,0,0,0.,24.0,0.,24.0,0.,24.0,0.,24.0
1980-11-15 21:57:08.500 ,0,0,0.,24.0,0.,24.0,0.,24.0,0.,24.0
1980-11-15 21:57:32.500 ,5,1,0.,24.0,0.,24.0,0.,24.0,0.,24.0
1980-11-15 21:57:56.500 ,5,0,0.,24.0,0.,24.0,0.,24.0,0.,24.0
1980-11-15 21:58:20.500 ,4,1,0.,24.0,0.,24.0,0.,24.0,0.,24.0
1980-11-15 21:58:44.500 ,4,0,0.,24.0,0.,24.0,0.,24.0,0.,24.0
1980-11-15 21:59:08.500 ,3,1,0.,24.0,0.,24.0,0.,24.0,0.,24.0
1980-11-15 21:59:32.500 ,3,0,0.,24.0,0.,24.0,0.,24.0,0.,24.0
1980-11-15 21:59:56.500 ,2,1,0.,24.0,0.,24.0,0.,24.0,0.,24.0
1980-11-15 22:00:20.500 ,2,0,0.,24.0,0.,24.0,0.,24.0,0.,24.0
1980-11-15 22:00:44.500 ,1,1,1.,24.0,0.,24.0,0.,24.0,0.,24.0
1980-11-15 22:01:08.500 ,1,0,0.,24.0,0.,24.0,0.,24.0,0.,24.0
1980-11-15 22:01:32.500 ,0,1,0.,24.0,0.,24.0,0.,24.0,0.,24.0
1980-11-15 22:01:56.500 ,0,0,0.,24.0,0.,24.0,0.,24.0,0.,24.0
1980-11-15 22:02:20.500 ,0,1,0.,24.0,0.,24.0,0.,24.0,0.,24.0
1980-11-15 22:02:44.500 ,0,0,0.,24.0,0.,24.0,0.,24.0,0.,24.0
1980-11-15 22:03:08.500 ,1,1,0.,24.0,0.,24.0,0.,24.0,0.,24.0
1980-11-15 22:03:32.500 ,1,0,0.,24.0,0.,24.0,0.,24.0,0.,24.0
1980-11-15 22:03:56.500 ,2,1,0.,24.0,0.,24.0,0.,24.0,0.,24.0
1980-11-15 22:04:20.500 ,2,0,0.,24.0,0.,24.0,0.,24.0,0.,24.0
1980-11-15 22:04:44.500 ,3,1,0.,24.0,0.,24.0,0.,24.0,0.,24.0
1980-11-15 22:05:08.500 ,3,0,0.,24.0,0.,24.0,0.,24.0,0.,24.0
1980-11-15 22:05:32.500 ,4,1,0.,24.0,0.,24.0,0.,24.0,0.,24.0
1980-11-15 22:05:56.500 ,4,0,0.,24.0,0.,24.0,0.,24.0,0.,24.0
1980-11-15 22:06:20.500 ,5,1,0.,24.0,0.,24.0,0.,24.0,0.,24.0
1980-11-15 22:06:44.500 ,5,0,0.,24.0,0.,24.0,0.,24.0,0.,24.0
1980-11-15 22:07:08.500 ,6,1,0.,24.0,0.,24.0,0.,24.0,0.,24.0
1980-11-15 22:07:32.500 ,6,0,0.,24.0,0.,24.0,0.,24.0,0.,24.0
1980-11-15 22:07:56.500 ,7,1,0.,24.0,0.,24.0,0.,24.0,0.,24.0
1980-11-15 22:08:20.500 ,7,0,0.,24.0,0.,24.0,0.,24.0,0.,24.0
1980-11-15 22:08:44.500 ,7,1,0.,24.0,0.,24.0,0.,24.0,0.,24.0
1980-11-15 22:09:08.500 ,7,0,0.,24.0,0.,24.0,0.,24.0,0.,24.0
1980-11-15 22:09:32.500 ,6,1,0.,24.0,0.,24.0,0.,24.0,0.,24.0
1980-11-15 22:09:56.500 ,6,0,0.,24.0,0.,24.0,0.,24.0,0.,24.0
1980-11-15 22:10:20.500 ,5,1,0.,24.0,0.,24.0,0.,24.0,0.,24.0
1980-11-15 22:10:44.500 ,5,0,0.,24.0,0.,24.0,0.,24.0,0.,24.0
1980-11-15 22:11:08.500 ,4,1,0.,24.0,0.,24.0,0.,24.0,0.,24.0
1980-11-15 22:11:32.500 ,4,0,0.,24.0,0.,24.0,0.,24.0,0.,24.0
1980-11-15 22:11:56.500 ,3,1,1.,24.0,0.,24.0,0.,24.0,0.,24.0
1980-11-15 22:12:20.500 ,3,0,0.,24.0,0.,24.0,0.,24.0,0.,24.0
1980-11-15 22:12:44.500 ,2,1,0.,24.0,0.,24.0,0.,24.0,0.,24.0
1980-11-15 22:13:08.500 ,2,0,0.,24.0,0.,24.0,0.,24.0,0.,24.0
1980-11-15 22:13:32.500 ,1,1,0.,24.0,0.,24.0,0.,24.0,0.,24.0
1980-11-15 22:13:56.500 ,1,0,0.,24.0,0.,24.0,0.,24.0,0.,24.0
1980-11-15 22:14:20.500 ,0,1,0.,24.0,0.,24.0,0.,24.0,0.,24.0
1980-11-15 22:14:44.500 ,0,0,0.,24.0,0.,24.0,0.,24.0,0.,24.0
1980-11-15 22:15:08.500 ,0,1,0.,24.0,0.,24.0,0.,24.0,0.,24.0
1980-11-15 22:15:32.500 ,0,0,0.,24.0,0.,24.0,0.,24.0,0.,24.0
1980-11-15 22:15:56.500 ,1,1,0.,24.0,0.,24.0,0.,24.0,0.,24.0
1980-11-15 22:16:20.500 ,1,0,0.,24.0,0.,24.0,0.,24.0,0.,24.0
1980-11-15 22:16:44.500 ,2,1,0.,24.0,0.,24.0,0.,24.0,0.,24.0
1980-11-15 22:17:08.500 ,2,0,0.,24.0,0.,24.0,0.,24.0,0.,24.0
1980-11-15 22:17:32.500 ,3,1,1.,24.0,0.,24.0,0.,24.0,0.,24.0
1980-11-15 22:17:56.500 ,3,0,0.,24.0,0.,24.0,0.,24.0,0.,24.0
1980-11-15 22:18:20.500 ,4,1,0.,24.0,0.,24.0,0.,24.0,0.,24.0
1980-11-15 22:18:44.500 ,4,0,0.,24.0,0.,24.0,0.,24.0,0.,24.0
1980-11-15 22:19:08.500 ,5,1,0.,24.0,0.,24.0,0.,24.0,0.,24.0
1980-11-15 22:19:32.500 ,5,0,0.,24.0,0.,24.0,0.,24.0,0.,24.0
1980-11-15 22:19:56.500 ,6,1,0.,24.0,0.,24.0,0.,24.0,0.,24.0
1980-11-15 22:20:20.500 ,6,0,0.,24.0,0.,24.0,0.,24.0,0.,24.0
1980-11-15 22:20:44.500 ,7,1,0.,24.0,0.,24.0,0.,24.0,0.,24.0
1980-11-15 22:21:08.500 ,7,0,0.,24.0,0.,24.0,0.,24.0,0.,24.0
1980-11-15 22:21:32.500 ,7,1,0.,24.0,0.,24.0,0.,24.0,0.,24.0
1980-11-15 22:21:56.500 ,7,0,0.,24.0,0.,24.0,0.,24.0,0.,24.0
1980-11-15 22:22:20.500 ,6,1,0.,24.0,0.,24.0,0.,24.0,0.,24.0
1980-11-15 22:22:44.500 ,6,0,1.,24.0,0.,24.0,0.,24.0,0.,24.0
1980-11-15 22:23:08.500 ,5,1,0.,24.0,0.,24.0,0.,24.0,0.,24.0
1980-11-15 22:23:32.500 ,5,0,0.,24.0,0.,24.0,0.,24.0,0.,24.0
1980-11-15 22:23:56.500 ,4,1,0.,24.0,0.,24.0,0.,24.0,0.,24.0
1980-11-15 22:24:20.500 ,4,0,0.,24.0,0.,24.0,0.,24.0,0.,24.0
1980-11-15 22:24:44.500 ,3,1,0.,24.0,0.,24.0,0.,24.0,0.,24.0
1980-11-15 22:25:08.500 ,3,0,0.,24.0,0.,24.0,0.,24.0,0.,24.0
1980-11-15 22:25:32.500 ,2,1,0.,24.0,0.,24.0,0.,24.0,0.,24.0
1980-11-15 22:25:56.500 ,2,0,0.,24.0,0.,24.0,0.,24.0,0.,24.0
1980-11-15 22:26:20.500 ,1,1,0.,24.0,0.,24.0,0.,24.0,0.,24.0
1980-11-15 22:26:44.500 ,0,0,0.,24.0,0.,24.0,0.,24.0,0.,24.0
1980-11-15 22:28:57.100 ,0,0,,0,,0,,0,,0
1980-11-15 22:29:08.500 ,0,0,0.,24.0,0.,24.0,0.,24.0,0.,24.0
1980-11-15 22:29:32.500 ,2,1,0.,24.0,0.,24.0,0.,24.0,0.,24.0
1980-11-15 22:29:56.500 ,2,0,0.,24.0,0.,24.0,0.,24.0,0.,24.0
1980-11-15 22:30:20.500 ,3,1,0.,24.0,0.,24.0,0.,24.0,0.,24.0
1980-11-15 22:30:44.500 ,3,0,0.,24.0,0.,24.0,0.,24.0,0.,24.0
1980-11-15 22:31:08.500 ,4,1,0.,24.0,0.,24.0,0.,24.0,0.,24.0
1980-11-15 22:31:32.500 ,4,0,0.,24.0,0.,24.0,0.,24.0,0.,24.0
1980-11-15 22:31:56.500 ,5,1,0.,24.0,0.,24.0,0.,24.0,0.,24.0
1980-11-15 22:32:20.500 ,5,0,0.,24.0,0.,24.0,0.,24.0,0.,24.0
1980-11-15 22:32:44.500 ,6,1,0.,24.0,0.,24.0,0.,24.0,0.,24.0
1980-11-15 22:33:08.500 ,6,0,0.,24.0,0.,24.0,0.,24.0,0.,24.0
1980-11-15 22:33:32.500 ,7,1,0.,24.0,0.,24.0,0.,24.0,0.,24.0
1980-11-15 22:33:56.500 ,7,0,0.,24.0,0.,24.0,0.,24.0,0.,24.0
1980-11-15 22:34:20.500 ,7,1,0.,24.0,0.,24.0,0.,24.0,0.,24.0
1980-11-15 22:34:44.500 ,7,0,0.,24.0,0.,24.0,0.,24.0,0.,24.0
1980-11-15 22:35:08.500 ,6,1,0.,24.0,0.,24.0,0.,24.0,0.,24.0
1980-11-15 22:35:32.500 ,6,0,0.,24.0,0.,24.0,0.,24.0,0.,24.0
1980-11-15 22:35:56.500 ,5,1,0.,24.0,0.,24.0,0.,24.0,0.,24.0
1980-11-15 22:36:20.500 ,5,0,0.,24.0,0.,24.0,0.,24.0,0.,24.0
1980-11-15 22:36:44.500 ,4,1,0.,24.0,0.,24.0,0.,24.0,0.,24.0
1980-11-15 22:37:08.500 ,4,0,0.,24.0,0.,24.0,0.,24.0,0.,24.0
1980-11-15 22:37:32.500 ,3,1,0.,24.0,0.,24.0,0.,24.0,0.,24.0
1980-11-15 22:37:56.500 ,3,0,0.,24.0,0.,24.0,0.,24.0,0.,24.0
1980-11-15 22:38:20.500 ,2,1,0.,24.0,0.,24.0,0.,24.0,0.,24.0
1980-11-15 22:38:44.500 ,2,0,0.,24.0,0.,24.0,0.,24.0,0.,24.0
1980-11-15 22:39:08.500 ,1,1,0.,24.0,0.,24.0,0.,24.0,0.,24.0
1980-11-15 22:39:32.500 ,1,0,0.,24.0,0.,24.0,0.,24.0,0.,24.0
1980-11-15 22:39:56.500 ,0,1,0.,24.0,0.,24.0,0.,24.0,0.,24.0
1980-11-15 22:40:20.500 ,0,0,0.,24.0,0.,24.0,0.,24.0,0.,24.0
1980-11-15 22:40:44.500 ,0,1,0.,24.0,0.,24.0,0.,24.0,0.,24.0
1980-11-15 22:41:08.500 ,0,0,0.,24.0,0.,24.0,0.,24.0,0.,24.0
1980-11-15 22:41:32.500 ,1,1,0.,24.0,0.,24.0,0.,24.0,0.,24.0
1980-11-15 22:41:56.500 ,1,0,0.,24.0,0.,24.0,0.,24.0,0.,24.0
1980-11-15 22:42:20.500 ,2,1,0.,24.0,0.,24.0,0.,24.0,0.,24.0
1980-11-15 22:42:44.500 ,2,0,0.,24.0,0.,24.0,0.,24.0,0.,24.0
1980-11-15 22:43:08.500 ,3,1,0.,24.0,0.,24.0,0.,24.0,0.,24.0
1980-11-15 22:43:32.500 ,3,0,0.,24.0,0.,24.0,0.,24.0,0.,24.0
1980-11-15 22:43:56.500 ,4,1,0.,24.0,0.,24.0,0.,24.0,0.,24.0
1980-11-15 22:44:20.500 ,4,0,0.,24.0,0.,24.0,0.,24.0,0.,24.0
1980-11-15 22:44:44.500 ,5,1,0.,24.0,0.,24.0,0.,24.0,0.,24.0
1980-11-15 22:45:08.500 ,5,0,0.,24.0,0.,24.0,0.,24.0,0.,24.0
1980-11-15 22:45:32.500 ,6,1,0.,24.0,0.,24.0,0.,24.0,0.,24.0
1980-11-15 22:45:56.500 ,6,0,0.,24.0,0.,24.0,0.,24.0,0.,24.0
1980-11-15 22:46:20.500 ,7,1,0.,24.0,0.,24.0,0.,24.0,0.,24.0
1980-11-15 22:46:44.500 ,7,0,0.,24.0,0.,24.0,0.,24.0,0.,24.0
1980-11-15 22:47:08.500 ,7,1,0.,24.0,0.,24.0,0.,24.0,0.,24.0
1980-11-15 22:47:32.500 ,7,0,0.,24.0,0.,24.0,0.,24.0,0.,24.0
1980-11-15 22:47:56.500 ,6,1,0.,24.0,0.,24.0,0.,24.0,0.,24.0
1980-11-15 22:48:20.500 ,6,0,0.,24.0,0.,24.0,0.,24.0,0.,24.0
1980-11-15 22:48:44.500 ,5,1,0.,24.0,0.,24.0,0.,24.0,0.,24.0
1980-11-15 22:49:08.500 ,5,0,0.,24.0,0.,24.0,0.,24.0,0.,24.0
1980-11-15 22:49:32.500 ,4,1,0.,24.0,0.,24.0,0.,24.0,0.,24.0
1980-11-15 22:49:56.500 ,4,0,0.,24.0,0.,24.0,0.,24.0,0.,24.0
1980-11-15 22:50:20.500 ,3,1,0.,24.0,0.,24.0,0.,24.0,0.,24.0
1980-11-15 22:50:44.500 ,3,0,0.,24.0,0.,24.0,0.,24.0,0.,24.0
1980-11-15 22:51:08.500 ,2,1,0.,24.0,0.,24.0,0.,24.0,0.,24.0
1980-11-15 22:51:32.500 ,2,0,0.,24.0,0.,24.0,0.,24.0,0.,24.0
1980-11-15 22:51:56.500 ,1,1,0.,24.0,0.,24.0,0.,24.0,0.,24.0
1980-11-15 22:52:20.500 ,1,0,0.,24.0,0.,24.0,0.,24.0,0.,24.0
1980-11-15 22:52:44.500 ,0,1,0.,24.0,0.,24.0,0.,24.0,0.,24.0
1980-11-15 22:53:08.500 ,0,0,0.,24.0,0.,24.0,0.,24.0,0.,24.0
1980-11-15 22:53:32.500 ,0,1,0.,24.0,0.,24.0,0.,24.0,0.,24.0
1980-11-15 22:53:56.500 ,0,0,0.,24.0,0.,24.0,0.,24.0,0.,24.0
1980-11-15 22:54:20.500 ,1,1,0.,24.0,0.,24.0,0.,24.0,0.,24.0
1980-11-15 22:54:44.500 ,1,0,0.,24.0,0.,24.0,0.,24.0,0.,24.0
1980-11-15 22:55:08.500 ,2,1,0.,24.0,0.,24.0,0.,24.0,0.,24.0
1980-11-15 22:55:32.500 ,2,0,0.,24.0,0.,24.0,0.,24.0,0.,24.0
1980-11-15 22:55:56.500 ,3,1,0.,24.0,0.,24.0,0.,24.0,0.,24.0
1980-11-15 22:56:20.500 ,3,0,1.,24.0,0.,24.0,0.,24.0,0.,24.0
1980-11-15 22:56:44.500 ,4,1,0.,24.0,0.,24.0,0.,24.0,0.,24.0
1980-11-15 22:57:08.500 ,4,0,0.,24.0,0.,24.0,0.,24.0,0.,24.0
1980-11-15 22:57:32.500 ,5,1,0.,24.0,0.,24.0,0.,24.0,0.,24.0
1980-11-15 22:57:56.500 ,5,0,0.,24.0,0.,24.0,0.,24.0,0.,24.0
1980-11-15 22:58:20.500 ,6,1,0.,24.0,0.,24.0,0.,24.0,0.,24.0
1980-11-15 22:58:44.500 ,6,0,0.,24.0,0.,24.0,0.,24.0,0.,24.0
1980-11-15 22:59:08.500 ,7,1,0.,24.0,0.,24.0,0.,24.0,0.,24.0
1980-11-15 22:59:32.500 ,7,0,0.,24.0,0.,24.0,0.,24.0,0.,24.0
1980-11-15 22:59:56.500 ,0,0,0.,24.0,0.,24.0,0.,24.0,0.,24.0
1980-11-15 23:00:20.500 ,0,0,0.,24.0,0.,24.0,0.,24.0,0.,24.0
1980-11-15 23:00:44.500 ,6,1,0.,24.0,0.,24.0,0.,24.0,0.,24.0
1980-11-15 23:01:08.500 ,6,0,0.,24.0,0.,24.0,0.,24.0,0.,24.0
1980-11-15 23:01:32.500 ,5,1,0.,24.0,0.,24.0,0.,24.0,0.,24.0
1980-11-15 23:01:56.500 ,5,0,0.,24.0,0.,24.0,0.,24.0,0.,24.0
1980-11-15 23:02:20.500 ,4,1,0.,24.0,0.,24.0,0.,24.0,0.,24.0
1980-11-15 23:02:44.500 ,4,0,0.,24.0,0.,24.0,0.,24.0,0.,24.0
1980-11-15 23:03:08.500 ,3,1,0.,24.0,0.,24.0,0.,24.0,0.,24.0
1980-11-15 23:03:32.500 ,3,0,0.,24.0,0.,24.0,0.,24.0,0.,24.0
1980-11-15 23:03:56.500 ,2,1,0.,24.0,0.,24.0,0.,24.0,0.,24.0
1980-11-15 23:04:20.500 ,2,0,0.,24.0,0.,24.0,0.,24.0,0.,24.0
1980-11-15 23:04:44.500 ,1,1,0.,24.0,0.,24.0,0.,24.0,0.,24.0
1980-11-15 23:05:08.500 ,1,0,0.,24.0,0.,24.0,0.,24.0,0.,24.0
1980-11-15 23:05:32.500 ,0,1,0.,24.0,0.,24.0,0.,24.0,0.,24.0
1980-11-15 23:05:56.500 ,0,0,0.,24.0,0.,24.0,0.,24.0,0.,24.0
1980-11-15 23:06:20.500 ,0,1,0.,24.0,0.,24.0,0.,24.0,0.,24.0
1980-11-15 23:06:44.500 ,0,0,0.,24.0,0.,24.0,0.,24.0,0.,24.0
1980-11-15 23:07:08.500 ,1,1,0.,24.0,0.,24.0,0.,24.0,0.,24.0
1980-11-15 23:07:32.500 ,1,0,0.,24.0,0.,24.0,0.,24.0,0.,24.0
1980-11-15 23:07:56.500 ,2,1,0.,24.0,0.,24.0,0.,24.0,0.,24.0
1980-11-15 23:08:20.500 ,2,0,0.,24.0,0.,24.0,0.,24.0,0.,24.0
1980-11-15 23:08:44.500 ,3,1,0.,24.0,0.,24.0,0.,24.0,0.,24.0
1980-11-15 23:09:08.500 ,3,0,0.,24.0,0.,24.0,0.,24.0,0.,24.0
1980-11-15 23:09:32.500 ,4,1,0.,24.0,0.,24.0,0.,24.0,0.,24.0
1980-11-15 23:09:56.500 ,4,0,0.,24.0,0.,24.0,0.,24.0,0.,24.0
1980-11-15 23:10:20.500 ,5,0,,0,,0,,0,,0
1980-11-15 23:10:44.500 ,5,0,0.,24.0,0.,24.0,0.,24.0,0.,24.0
1980-11-15 23:11:08.500 ,6,1,0.,24.0,0.,24.0,0.,24.0,0.,24.0
1980-11-15 23:11:32.500 ,6,0,0.,24.0,0.,24.0,0.,24.0,0.,24.0
1980-11-15 23:11:56.500 ,7,1,0.,24.0,0.,24.0,0.,24.0,0.,24.0
1980-11-15 23:12:20.500 ,7,0,0.,24.0,0.,24.0,0.,24.0,0.,24.0
1980-11-15 23:12:44.500 ,7,1,0.,24.0,0.,24.0,0.,24.0,0.,24.0
1980-11-15 23:13:08.500 ,7,0,0.,24.0,0.,24.0,0.,24.0,0.,24.0
1980-11-15 23:13:32.500 ,6,1,0.,24.0,0.,24.0,0.,24.0,0.,24.0
1980-11-15 23:13:56.500 ,6,0,0.,24.0,0.,24.0,0.,24.0,0.,24.0
1980-11-15 23:14:20.500 ,5,1,0.,24.0,0.,24.0,0.,24.0,0.,24.0
1980-11-15 23:14:44.500 ,5,0,0.,24.0,0.,24.0,0.,24.0,0.,24.0
1980-11-15 23:15:08.500 ,4,1,0.,24.0,0.,24.0,0.,24.0,0.,24.0
1980-11-15 23:15:32.500 ,4,0,0.,24.0,0.,24.0,0.,24.0,0.,24.0
1980-11-15 23:15:56.500 ,3,1,0.,24.0,0.,24.0,0.,24.0,0.,24.0
1980-11-15 23:16:20.500 ,3,0,0.,24.0,0.,24.0,0.,24.0,0.,24.0
1980-11-15 23:16:44.500 ,2,1,0.,24.0,0.,24.0,0.,24.0,0.,24.0
1980-11-15 23:17:08.500 ,2,0,0.,24.0,0.,24.0,0.,24.0,0.,24.0
1980-11-15 23:17:32.500 ,1,1,0.,24.0,0.,24.0,0.,24.0,0.,24.0
1980-11-15 23:17:56.500 ,1,0,0.,24.0,0.,24.0,0.,24.0,0.,24.0
1980-11-15 23:18:20.500 ,0,1,0.,24.0,0.,24.0,0.,24.0,0.,24.0
1980-11-15 23:18:44.500 ,0,0,0.,24.0,0.,24.0,0.,24.0,0.,24.0
1980-11-15 23:19:08.500 ,0,1,0.,24.0,0.,24.0,0.,24.0,0.,24.0
1980-11-15 23:19:32.500 ,0,0,0.,24.0,0.,24.0,0.,24.0,0.,24.0
1980-11-15 23:19:56.500 ,1,1,0.,24.0,0.,24.0,0.,24.0,0.,24.0
1980-11-15 23:20:20.500 ,1,0,0.,24.0,0.,24.0,0.,24.0,0.,24.0
1980-11-15 23:20:44.500 ,2,1,0.,24.0,0.,24.0,0.,24.0,0.,24.0
1980-11-15 23:21:08.500 ,2,0,0.,24.0,0.,24.0,0.,24.0,0.,24.0
1980-11-15 23:21:32.500 ,3,1,0.,24.0,0.,24.0,0.,24.0,0.,24.0
1980-11-15 23:21:56.500 ,3,0,0.,24.0,0.,24.0,0.,24.0,0.,24.0
1980-11-15 23:22:20.500 ,4,1,0.,24.0,0.,24.0,0.,24.0,0.,24.0
1980-11-15 23:22:44.500 ,4,0,0.,24.0,0.,24.0,0.,24.0,0.,24.0
1980-11-15 23:23:08.500 ,5,1,0.,24.0,0.,24.0,0.,24.0,0.,24.0
1980-11-15 23:23:32.500 ,5,0,0.,24.0,0.,24.0,0.,24.0,0.,24.0
1980-11-15 23:23:56.500 ,6,1,0.,24.0,0.,24.0,0.,24.0,0.,24.0
1980-11-15 23:24:20.500 ,6,0,0.,24.0,0.,24.0,0.,24.0,0.,24.0
1980-11-15 23:24:44.500 ,7,1,0.,24.0,0.,24.0,0.,24.0,0.,24.0
1980-11-15 23:25:08.500 ,7,0,0.,24.0,0.,24.0,0.,24.0,0.,24.0
1980-11-15 23:25:32.500 ,7,1,0.,24.0,0.,24.0,0.,24.0,0.,24.0
1980-11-15 23:25:56.500 ,7,0,0.,24.0,0.,24.0,0.,24.0,0.,24.0
1980-11-15 23:26:20.500 ,6,1,0.,24.0,0.,24.0,0.,24.0,0.,24.0
1980-11-15 23:26:44.500 ,6,0,0.,24.0,0.,24.0,0.,24.0,0.,24.0
1980-11-15 23:27:08.500 ,5,1,0.,24.0,0.,24.0,0.,24.0,0.,24.0
1980-11-15 23:27:32.500 ,5,0,0.,24.0,0.,24.0,0.,24.0,0.,24.0
1980-11-15 23:27:56.500 ,4,1,0.,24.0,0.,24.0,0.,24.0,0.,24.0
1980-11-15 23:28:20.500 ,4,0,0.,24.0,0.,24.0,0.,24.0,0.,24.0
1980-11-15 23:28:44.500 ,3,1,0.,24.0,0.,24.0,0.,24.0,0.,24.0
1980-11-15 23:29:08.500 ,3,0,0.,24.0,0.,24.0,0.,24.0,0.,24.0
1980-11-15 23:29:32.500 ,2,1,0.,24.0,0.,24.0,0.,24.0,0.,24.0
1980-11-15 23:29:56.500 ,2,0,0.,24.0,0.,24.0,0.,24.0,0.,24.0
1980-11-15 23:30:20.500 ,1,1,0.,24.0,0.,24.0,0.,24.0,0.,24.0
1980-11-15 23:30:44.500 ,1,0,0.,24.0,0.,24.0,0.,24.0,0.,24.0
1980-11-15 23:31:08.500 ,0,1,0.,24.0,0.,24.0,0.,24.0,0.,24.0
1980-11-15 23:31:32.500 ,0,0,0.,24.0,0.,24.0,0.,24.0,0.,24.0
1980-11-15 23:31:56.500 ,0,1,0.,24.0,0.,24.0,0.,24.0,0.,24.0
1980-11-15 23:32:20.500 ,0,0,0.,24.0,0.,24.0,0.,24.0,0.,24.0
1980-11-15 23:32:44.500 ,1,1,0.,24.0,0.,24.0,0.,24.0,0.,24.0
1980-11-15 23:33:08.500 ,1,0,0.,24.0,0.,24.0,0.,24.0,0.,24.0
1980-11-15 23:33:32.500 ,2,1,0.,24.0,0.,24.0,0.,24.0,0.,24.0
1980-11-15 23:33:56.500 ,2,0,0.,24.0,0.,24.0,0.,24.0,0.,24.0
1980-11-15 23:34:20.500 ,3,1,0.,24.0,0.,24.0,0.,24.0,0.,24.0
1980-11-15 23:34:44.500 ,3,0,0.,24.0,0.,24.0,0.,24.0,0.,24.0
1980-11-15 23:35:08.500 ,4,1,0.,24.0,0.,24.0,0.,24.0,0.,24.0
1980-11-15 23:35:32.500 ,4,0,0.,24.0,0.,24.0,0.,24.0,0.,24.0
1980-11-15 23:35:56.500 ,5,1,0.,24.0,0.,24.0,0.,24.0,0.,24.0
1980-11-15 23:36:20.500 ,5,0,0.,24.0,0.,24.0,0.,24.0,0.,24.0
1980-11-15 23:36:44.500 ,6,1,0.,24.0,0.,24.0,0.,24.0,0.,24.0